Regional Weather Roundup
Issued by NWS Cleveland, OH

Home | Current Version | Previous Version | Text Only | Print | Product List | Glossary Off
Versions: 1 2 3 4 5 6 7 8 9 10 11 12 13 14 15 16 17 18 19 20 21 22 23 24 25 26 27 28 29 30 31 32 33 34 35 36 37 38 39 40 41 42 43 44 45 46 47 48 49 50

000
ASUS41 KCLE 170310
RWRCLE
OHIO REGIONAL WEATHER ROUNDUP
NATIONAL WEATHER SERVICE CLEVELAND, OH
1100 PM EDT MON OCT 16 2017

NOTE: "FAIR" INDICATES FEW OR NO CLOUDS BELOW 12,000 FEET WITH NO
SIGNIFICANT WEATHER AND/OR OBSTRUCTIONS TO VISIBILITY.

OHZ001>008-015>018-024>027-034-035-043-044-170400-
   NORTHWEST OHIO

CITY           SKY/WX    TMP DP  RH WIND       PRES   REMARKS
DEFIANCE       CLEAR     43  40  89 CALM      30.28R
FINDLAY        CLEAR     42  37  82 S5        30.28S
TOLEDO EXPRESS CLEAR     41  41 100 CALM      30.27S
TOLEDO EXEC    CLEAR     44  39  82 S6        30.28S
LIMA           CLEAR     45  41  86 S7        30.29S
$$

OHZ009>014-019>023-028>033-038-089-170400-
   NORTHEAST OHIO

CITY           SKY/WX    TMP DP  RH WIND       PRES   REMARKS
CLE-HOPKINS    CLEAR     44  37  76 S8        30.31S
CLE-LAKEFRONT  CLEAR     47  37  68 S8        30.28S
CUY CO. ARPT   CLEAR     45  36  70 S7        30.29S
LORAIN-ELYRIA    N/A    N/A N/A N/A MISG      30.30S
ASHTABULA      CLEAR     38  36  92 CALM      30.29S
AKRON-CANTON   CLEAR     45  34  65 CALM      30.30S
WOOSTER        CLEAR     37  36  96 CALM      30.31S
MANSFIELD      CLEAR     42  37  82 S6        30.30R
YOUNGSTOWN     CLEAR     38  33  82 CALM      30.29S
$$

OHZ042-051>053-060>062-070>072-077>081-170400-
  SOUTHWEST OHIO

CITY           SKY/WX    TMP DP  RH WIND       PRES   REMARKS
CINC-COVINGTON CLEAR     45  42  89 CALM      30.32R
CINC-LUNKEN    CLEAR     44  43  96 CALM      30.34R
HAMILTON       CLEAR     40  39  97 CALM      30.33S
DAYTON         CLEAR     48  37  65 SW3       30.31S
WRIGHT-PAT AFB CLEAR     43  40  92 CALM      30.31S
DAYTON GENERAL CLEAR     47  39  74 CALM      30.31R
WILMINGTON     CLEAR     43  40  89 CALM      30.32R
$$

OHZ036-037-039>041-045>050-054>059-063>069-073>076-082>088-170400-
  CENTRAL AND SOUTHEAST OHIO

CITY           SKY/WX    TMP DP  RH WIND       PRES   REMARKS
COLUMBUS       CLEAR     47  42  83 CALM      30.31R
OSU AIRPORT    CLEAR     45  40  82 CALM      30.31R
BOLTON FIELD   CLEAR     40  40  97 CALM      30.32R
RICKENBACK AFB CLEAR     44  40  89 CALM      30.31S
NEWARK         CLEAR     40  38  93 CALM      30.31S
MARION         CLEAR     42  37  82 S3        30.30S
LANCASTER      CLEAR     40  38  93 CALM      30.32R
ZANESVILLE     CLEAR     44  39  82 CALM      30.32R
NEW PHILLY     NOT AVBL
$$



USA.gov is the U.S. government's official web portal to all federal, state and local government web resources and services.